Location: ??????
(36.0418°N, 43.6351°E)
Time: 22:45:53
(UTC+00:00)

Cosmos 1745 Rocket - Pass Details

Date: 07 March 2021
Orbit: 954 x 997 km, 83.0° (Epoch: 18 April)

Event Time Altitude Azimuth Distance (km) Brightness Sun altitude
Rises 00:44:49 0° 355° (N) 3,696 7.2 -33.3°
Reaches altitude 10° 00:47:21 10° 357° (N) 2,750 6.5 -32.8°
Maximum altitude 00:53:40 74° 83° (E) 1,030 4.1 -31.6°
Enters shadow 00:55:03 55° 149° (SSE) 1,174 4.3 -31.3°
Exits shadow 00:59:49 11° 168° (SSE) 2,693 6.2 -30.4°
Drops below altitude 10° 00:59:59 10° 168° (SSE) 2,753 6.3 -30.4°
Sets 01:02:31 0° 170° (S) 3,700 7.0 -29.9°
